Location: Buckhorn Peak
(37.6641°N, 120.1241°W)
Time: 00:03:09
(UTC+00:00)

Altair - Pass Details

Date: 09 November 2024
Orbit: 1501 x 1683 km, 47.2° (Epoch: 03 December)

Event Time Altitude Azimuth Distance (km) Brightness Sun altitude
Rises 02:59:49 0° 299° (WNW) 4,658 10.9 -25.0°
Reaches altitude 10° 03:03:02 10° 292° (WNW) 3,689 10.3 -25.7°
Maximum altitude 03:11:29 41° 227° (SW) 2,131 8.5 -27.3°
Drops below altitude 10° 03:20:12 10° 161° (SSE) 3,797 9.4 -29.1°
Enters shadow 03:22:01 - 157° (SSE) 4,330 9.6 -29.4°
